Foresail-1
1 52766U 22057AL 24242.32220473 .00044098 00000-0 12410-2 0 9994
2 52766 97.5886 9.7840 0009026 230.1230 129.9220 15.36304827125661
SNUGLITE 2
1 52899U 22065F 24242.67793662 .00004441 00000-0 90919-3 0 9992
2 52899 98.1289 22.4567 0006636 285.2701 74.7767 14.61259812114995
IO-117
1 53106U 22080B 24228.11242500 -.00000003 00000-0 00000-0 0 9994
2 53106 70.1424 172.0499 0007747 94.1050 266.0495 6.42557430 49057
SelfieSat
1 53951U 22057BC 24242.35034442 .00947287 40232-3 25098-2 0 9995
2 53951 97.5574 18.0222 0011773 272.1230 87.8697 15.94605636126259
FO-118
1 54684U 22167C 24242.83925023 .00063691 00000-0 17844-2 0 9992
2 54684 97.6117 29.7371 0010033 246.0672 113.9521 15.36337225 95589
SSS-2B
1 56184U 23054G 24242.17359718 .00090363 00000-0 16437-2 0 9997
2 56184 97.3564 141.1091 0002056 231.2522 128.8546 15.49195710 77401
CIRBE
1 56188U 23054L 24241.45702802 .00263138 00000-0 19880-2 0 9994
2 56188 97.3440 143.9403 0005763 154.0605 206.0948 15.71646544 77559
INSPIRE-Sat 7
1 56211U 23054AK 24242.47430628 .00443219 00000-0 22204-2 0 9992
2 56211 97.3443 146.7302 0008460 153.5776 206.5924 15.80573588 77813
RoseyCubesat 1
1 56212U 23054AL 24242.65224740 .02358097 76155-2 20958-2 0 9990
2 56212 97.3416 148.8409 0010094 177.8547 182.2784 16.14756972 77964
SO-120
1 56992U 23084BU 24242.58905642 .00071215 00000-0 20878-2 0 9994
2 56992 97.5352 3.0673 0009878 130.9515 229.2584 15.34879249 67411
MRC-100
1 56993U 23084BV 24242.30474654 .00087326 00000-0 22910-2 0 9998
2 56993 97.5344 3.4710 0008380 132.1901 228.0057 15.38285953 67429
UmKA 1 (RS40S)
1 57172U 23091G 24242.84631530 .00011276 00000-0 71762-3 0 9994
2 57172 97.6054 294.1797 0015608 225.9865 134.0078 15.08852508 64590
CubeBel-2 (EU11S)
1 57175U 23091K 24242.82087418 .00015680 00000-0 96652-3 0 9993
2 57175 97.6063 294.2014 0013734 237.5157 122.4745 15.09964387 64599
VERONIKA
1 58261U 23174F 24242.78612236 .00034554 00000-0 13699-2 0 9999
2 58261 97.4552 317.0560 0010233 346.7513 13.3454 15.25260491 44919
KAFASAT
1 58317U 23174BP 24242.29246889 .00053464 00000-0 18450-2 0 9995
2 58317 97.4495 317.5004 0008961 318.7682 41.2881 15.29746213 44915
ENSO
1 58470U 23185J 24242.83320165 .00029865 00000-0 11313-2 0 9996
2 58470 97.4203 308.9138 0011315 25.5632 334.6164 15.26797792 41363
EIRSAT-1
1 58472U 23185L 24242.83642847 .00034884 00000-0 12808-2 0 9999
2 58472 97.4197 309.0358 0010747 26.1399 334.0380 15.27802613 41373
SO-121
1 58567U 23174CY 24242.14505208 .00148333 00000-0 33954-2 0 9995
2 58567 97.4459 318.6103 0008856 309.7888 50.2578 15.42185912 44972
SONATE-2
1 59112U 24043Q 24241.60308775 .00027267 00000-0 12273-2 0 9991
2 59112 97.4850 4.7917 0014674 44.3405 315.9003 15.20958609 26805
MESAT1
1 60209U 24125G 24242.43743913 .00023469 00000-0 10484-2 0 9992
2 60209 97.3163 93.6514 0027379 69.3027 291.1140 15.21001021 8549
GRBBeta
1 60237U 24128C 24242.55616934 .00010072 00000-0 87216-3 0 9995
2 60237 61.9963 346.2951 0014660 324.8420 35.1700 14.97548459 7586
Curium One
1 60242U 24128H 24241.58287369 .00018137 00000-0 15806-2 0 9994
2 60242 61.9871 349.8271 0016223 307.5711 52.3903 14.96900313 7443
ROBUSTA-3A
1 60243U 24128J 24242.19061383 .00015151 00000-0 13306-2 0 9995
2 60243 61.9937 347.8244 0014787 301.3784 58.5856 14.96715070 7539
CatSat
1 60246U 24125J 24241.54950411 .00018991 00000-0 84421-3 0 9994
2 60246 97.3016 94.0227 0052999 23.5634 33.6688 15.20266002 6528
/EX
1
0
The following satellites have been removed from this week's AMSAT TLE distribution:
STECCO NORAD Cat ID 47962 Decayed from orbit on or about 15 August 2024
BY70-2 NORAD Cat ID 45857 Decayed from orbit on or about 19 August 2024
TianYi 2 NORAD Cat ID 43155 Decayed from orbit on or about 23 August 2024
The following satellite has been added to this week's AMSAT TLE distribution:
Curium One NORAD Cat ID 60242 IARU coordinated up/downlink 436.240 MHz MSK
Joe Fitzgerald KM1P
AMSAT Orbital Elements Manager
1
0
SB KEPS @ AMSAT $ORB24236.1
2Line Orbital Elements 24236.AMSAT
QST de W1STR
AMSAT Orbital Elements for Amateur Satellites in TLE Format
>From Orbital Analysis Office
New England Sci-Tech STEM Education Center
Natick, MA August 23, 2024
To all radio amateurs
These element sets describe the orbits of various satellites
in use by the amateur radio community. For details see:
www.amsat.org/keplerian-elements-formats/
A daily update of element sets is available at:
www.amsat.org/tle/daily-bulletin.txt
or without bulletin text:
www.amsat.org/tle/dailytle.txt
AO-07
1 07530U 74089B 24235.72504575 -.00000035 00000-0 73801-4 0 9996
2 07530 101.9830 231.0053 0012017 319.0164 215.0357 12.53678370277616
UO-11
1 14781U 84021B 24235.44266036 .00004029 00000-0 45390-3 0 9992
2 14781 97.7108 202.7608 0007169 206.5498 153.5352 14.87147595158332
AO-27
1 22825U 93061C 24235.70471159 .00000411 00000-0 17518-3 0 9999
2 22825 98.7833 289.1579 0007450 240.5956 119.4483 14.30555588612392
FO-29
1 24278U 96046B 24235.73829322 .00000113 00000-0 15077-3 0 9998
2 24278 98.5793 161.6651 0350503 16.0569 345.1353 13.53202271383683
NOAA-15
1 25338U 98030A 24235.79474590 .00000566 00000-0 25157-3 0 9992
2 25338 98.5664 261.5245 0011319 126.7158 233.5064 14.26675136366932
GO-32
1 25397U 98043D 24235.77407588 .00000376 00000-0 18346-3 0 9993
2 25397 98.9281 203.5118 0001208 19.8945 340.2280 14.24098988357111
ISS
1 25544U 98067A 24235.67560383 .00033288 00000-0 57656-3 0 9990
2 25544 51.6399 345.9258 0004816 238.7404 121.3114 15.50586304468860
NO-44
1 26931U 01043C 24235.52101782 .00000763 00000-0 31907-3 0 9990
2 26931 67.0510 160.1731 0007756 270.8449 89.1764 14.31332174195447
SO-50
1 27607U 02058C 24235.59167323 .00004449 00000-0 60932-3 0 9993
2 27607 64.5569 17.3779 0025574 75.8394 284.5549 14.79439947166144
CO-55
1 27844U 03031E 24235.59211526 .00001121 00000-0 51306-3 0 9992
2 27844 98.6790 241.7038 0008789 317.9295 42.1208 14.23399385 97234
CO-57
1 27848U 03031J 24235.55274377 .00000943 00000-0 43941-3 0 9992
2 27848 98.6821 241.8718 0009022 335.6459 24.4292 14.22821022 97029
RS-22
1 27939U 03042A 24235.86140255 .00004101 00000-0 68591-3 0 9994
2 27939 98.2995 33.1597 0011430 205.3183 302.5448 14.70367999118071
NOAA-18
1 28654U 05018A 24235.82882896 .00000536 00000-0 30935-3 0 9993
2 28654 98.8714 312.2339 0013480 231.4142 128.5824 14.13295471992670
CO-58
1 28895U 05043F 24235.35901702 .00005384 00000-0 94069-3 0 9998
2 28895 98.2106 11.3300 0016058 145.8243 214.3999 14.68248803 4392
CO-65
1 32785U 08021C 24235.44716264 .00011484 00000-0 97821-3 0 9994
2 32785 97.7597 200.2825 0013484 104.9244 255.3472 14.97865320885390
AAUSAT2
1 32788U 08021F 24235.69434402 .00045820 00000-0 20064-2 0 9990
2 32788 97.5982 216.3214 0001169 342.8164 17.3031 15.21876117888529
CO-66
1 32791U 08021J 24235.63482905 .00019154 00000-0 13221-2 0 9997
2 32791 97.6959 206.5282 0008179 90.0269 270.1894 15.05794944886590
